Location: Unspecified
(47.4992°N, 121.7766°W)
Time: 14:10:23
(UTC-07:00)

Cosmos 2058 - Visible Passes

Search period start: 18 June 2018 00:00
Search period end: 28 June 2018 00:00
Orbit: 562 x 585 km, 82.5° (Epoch: 17 June)

Date Brightness Start Highest point End Pass type
(mag) Time Alt. Az. Time Alt. Az. Time Alt. Az.
18 Jun 4.0 00:12:13 27° ESE 00:13:13 30° E 00:16:52 10° NNE visible
18 Jun 4.5 01:48:25 19° WSW 01:50:09 25° WNW 01:53:39 10° NNW visible
19 Jun 3.6 00:15:16 33° SE 00:16:18 39° E 00:20:11 10° NNE visible
19 Jun 4.9 01:51:28 15° WSW 01:53:24 20° WNW 01:56:32 10° NNW visible
20 Jun 3.2 00:18:18 39° SE 00:19:25 52° E 00:23:27 10° NNE visible
20 Jun 5.2 01:54:30 12° W 01:56:40 16° WNW 01:59:19 10° NNW visible
21 Jun 2.9 00:21:19 43° SSE 00:22:33 68° E 00:26:41 10° NNE visible
21 Jun 5.4 01:58:04 10° W 01:59:58 13° WNW 02:01:54 10° NW visible
22 Jun 2.8 00:24:19 42° S 00:25:42 89° E 00:29:51 10° N visible
22 Jun 5.7 02:03:14 10° WNW 02:03:17 10° WNW 02:03:21 10° WNW visible
22 Jun 5.1 22:51:07 10° ESE 22:52:32 12° E 22:53:57 10° ENE visible
23 Jun 3.0 00:27:19 37° SSW 00:28:52 69° W 00:33:00 10° N visible
23 Jun 4.9 22:54:05 13° ESE 22:55:33 15° E 22:57:55 10° NE visible
24 Jun 3.4 00:30:17 30° SW 00:32:02 52° WNW 00:36:06 10° N visible
24 Jun 4.6 22:57:02 16° ESE 22:58:36 19° E 23:01:32 10° NE visible
25 Jun 3.9 00:33:14 24° SW 00:35:14 40° WNW 00:39:09 10° N visible
25 Jun 4.3 22:59:58 19° ESE 23:01:40 24° E 23:05:00 10° NE visible
26 Jun 4.3 00:36:10 19° WSW 00:38:27 31° WNW 00:42:10 10° N visible
26 Jun 3.9 23:02:54 21° SE 23:04:44 31° E 23:08:23 10° NNE visible
27 Jun 4.7 00:39:05 14° WSW 00:41:41 25° WNW 00:45:07 10° NNW visible
27 Jun 3.5 23:05:48 23° SSE 23:07:50 40° E 23:11:42 10° NNE visible
